Weather WX

World > North America > United States > Ohio

Blaine, Ohio Regional Weather

Lat: 40.07N, Lon: 80.82W
Wx Zone: OHZ059
Warning FLW WEATHER ALERT - EXCESSIVE HEAT WARNING (More Info. Click Here) Warning
Feedback

Blaine, OH Regional Weather

Expires:201907192100;;316218
ASUS41 KCLE 192012
RWRCLE
OHIO REGIONAL WEATHER ROUNDUP
NATIONAL WEATHER SERVICE WILMINGTON, OH
400 PM EDT FRI JUL 19 2019

NOTE: "FAIR" INDICATES FEW OR NO CLOUDS BELOW 12,000 FEET WITH NO
SIGNIFICANT WEATHER AND/OR OBSTRUCTIONS TO VISIBILITY.


OHZ036-037-039>041-045>050-054>059-063>069-073>076-082>088-192100-
  CENTRAL AND SOUTHEAST OHIO
  
CITY           SKY/WX    TMP DP  RH WIND       PRES   REMARKS
COLUMBUS       PTSUNNY   91  74  57 SW10      29.95S HX 100           
OSU AIRPORT    PTSUNNY   91  75  59 SW12      29.96R HX 101           
BOLTON FIELD   MOSUNNY   90  77  66 SW13G18   29.97S HX 102           
RICKENBACK AFB PTSUNNY   90  76  63 SW16      29.95S HX 101           
NEWARK         FAIR      91  76  61 SW10      29.96S HX 103           
MARION         FAIR      91  74  57 SW16G23   29.95S HX 100           
LANCASTER      PTSUNNY   90  77  65 SW8       29.97S HX 103           
ZANESVILLE     FAIR      90  75  61 S13       29.97S HX 100           
NEW PHILLY     PTSUNNY   87  76  69 SW7       29.97S HX  97           
$$
  

SKY/WX - Weather  TMP - Temperature  DP - Dew Point  RH - Relative Humidity
WIND - Wind Direction/Speed PRES - Barometric Pressure VSB - Visibility
WCI - Wind Chill Index E13G22 Wind - East Wind 13 mph/Gusts of 22 mph